GFSSE_con_mucape_132.txt.gz
CAPE
1178 2096 1714 1808 1758 1772 1799 1839 2167 2289 2337 2395 2354 2401 2443 2486 2253 2319 2544 2606 2797 2857 2660 2018 1950 1956 1913 1876 2078 1914 1724 1940 2362 2456 2313 1997 2025 2074 2047 2151 1977 1513 1836
1546 2271 1710 1722 1768 1855 1906 1923 2155 2527 2658 2583 2444 2458 2487 2524 2304 2399 2613 2629 2822 2932 2633 2166 1840 1874 1785 1648 1978 1848 1741 1824 2140 2305 2403 2225 2001 1973 1976 1846 1674 1540 2210
2163 2151 2279 1740 1792 1876 1976 2086 2338 2800 2870 2801 2609 2562 2588 2572 2435 2418 2525 2525 2807 3045 3015 2438 2207 1672 1518 1627 1661 1707 1719 1746 2014 2232 2398 1795 1763 1960 1861 1646 1923 2143 2102
2431 2286 2514 1884 1887 1881 1915 2026 2297 2924 3044 3005 2787 2661 2682 2659 2595 2564 2481 2433 2729 3123 3174 2499 2393 2099 1654 1417 1479 1518 1598 1652 1756 2089 1822 1423 1622 1855 1997 1644 1748 1827 2076
2449 2451 2707 1988 1909 1914 1847 1987 2178 2556 2819 2933 2897 2869 2791 2775 2767 2753 2490 2483 2822 3264 3038 2566 2769 2704 1610 1055 1190 1357 1462 1474 1598 1554 1631 1518 1572 1799 1949 1732 1569 1774 1749
2795 2623 2238 1993 1955 2006 1962 1977 2139 2180 2295 2594 2740 2983 2967 2880 2933 2823 2490 2604 3018 3405 2983 2962 3004 2645 1564 1108 991 1217 1316 1300 1215 1625 1613 1659 1751 1869 1668 2119 1733 1814 1769
2608 2819 2816 1979 2007 2068 2174 2113 2046 2015 1934 2185 2550 2800 2953 3020 2999 2764 2474 2607 2947 3173 2962 3038 2870 2333 1577 1221 1159 1106 1084 1133 1382 1565 1559 1609 1780 1839 1595 1946 1760 1440 1631
2793 2961 2870 2010 1961 2009 2090 2034 1961 1836 1808 1858 2147 2563 2815 2884 2817 2640 2458 2628 2845 2890 2879 2757 2501 2146 1445 1262 1284 985 905 854 1199 1572 1566 1628 1640 1730 1758 2040 1907 1585 1635
2974 3243 3234 3194 2670 1868 1947 1945 1924 1909 1760 1751 1784 2050 2403 2631 2627 2507 2423 2585 2729 2729 2684 2557 2343 1886 1448 1353 1145 936 831 834 1508 1456 1508 1641 1381 1272 1530 2122 1959 1758 1592
2314 3167 3581 3594 3455 3358 3290 1964 1823 1859 1886 1733 1720 1726 1919 2220 2330 2304 2256 2380 2567 2524 2468 2422 2214 1770 1551 1360 1099 897 801 727 1275 1429 1609 1439 1343 1328 1385 2183 2111 1792 1706
613 2178 3275 3714 3636 3647 3523 3120 2119 1882 1809 1854 1747 1719 1844 2132 2225 2319 2074 1960 2254 2304 2232 2242 2166 1959 1708 1443 1152 915 756 1324 1332 1505 1364 1051 683 1250 1572 2198 2045 1870 1727
0 50 2435 3383 3684 3697 3186 3210 3304 3192 3001 2875 2746 2683 2586 2362 2303 2016 1809 1726 1956 2074 1970 2046 2046 1779 1642 1451 1393 811 1385 1264 1431 1500 1451 882 511 1000 1358 1755 1823 1954 1754
0 0 73 2444 3461 3607 3330 3299 3313 3169 3116 3020 3137 3061 2868 2662 2679 2468 2378 2405 2423 1850 2334 1910 2024 2084 1703 1604 1387 1413 1279 1444 1413 1331 1251 902 527 1115 1306 1648 1923 1995 1659
0 17 93 969 2167 2916 3295 2874 3026 2703 2506 2550 2636 2708 3055 2890 2646 2619 2318 2548 2260 2252 2220 2355 2326 2190 2045 2081 2001 1844 1774 1578 1265 1259 1375 1014 562 894 1268 1520 1977 1935 1815
0 0 0 0 85 1425 1502 2430 2799 2538 2614 2299 2503 2268 2465 2541 2707 2504 2418 2171 2145 2392 2417 2331 2289 2354 2454 2328 2200 2051 1935 1821 1635 1372 1360 972 630 401 973 1293 1609 1968 1915
0 0 0 0 3 144 803 956 1569 1825 2007 2097 2105 1804 2081 2136 2284 2145 2472 2443 2423 2357 2401 2409 2165 2144 2311 2087 1881 1996 1994 1958 1744 1699 1485 1357 750 370 405 905 1372 1939 2332
0 0 0 0 0 1 171 518 1029 1088 1123 1863 2038 1455 1898 1633 1376 1610 2069 2018 2123 2351 2352 2119 2143 2011 1924 2066 2077 2105 2020 2194 1994 1870 1816 1677 1102 628 318 268 846 1581 2171
0 0 0 0 0 0 0 79 219 649 1582 1294 1387 1381 1295 1332 1492 1156 1005 1481 1524 1723 1503 1497 1848 1902 1692 2036 1930 1959 1968 2082 2024 2002 1893 1779 1664 1283 703 645 484 806 1157
0 0 0 0 0 0 7 34 64 560 722 725 558 514 549 457 365 453 332 702 793 769 975 1250 1504 1692 1386 1366 1584 1735 1987 1968 1912 1736 1629 1760 1804 1620 1334 871 784 427 464
0 0 0 0 0 0 11 50 109 173 255 301 250 291 231 115 76 35 20 23 35 66 263 788 1113 1288 869 484 694 1314 1191 1524 1917 1606 1748 1441 1646 1700 1817 1415 1092 821 234
0 0 0 0 0 0 0 3 31 62 94 87 66 39 0 0 0 0 0 0 0 0 2 178 538 607 997 641 406 563 132 24 1280 1448 1613 1465 1438 1628 1762 1662 1848 1529 725
0 0 0 0 0 0 0 2 20 24 25 22 28 6 0 0 0 0 0 0 0 0 0 3 9 207 347 527 623 602 316 236 1193 1064 1707 1475 1529 1438 1506 1564 1362 1508 1396
0 0 0 0 0 0 0 0 0 0 0 1 0 0 1 0 0 0 0 0 0 0 0 0 1 7 11 117 302 528 373 357 622 1455 1134 1370 1385 1289 1200 1175 1102 1125 1242
0 0 0 0 0 0 0 0 0 0 0 0 0 0 0 0 0 0 0 0 0 0 0 0 0 0 4 0 15 165 485 779 469 588 466 782 964 566 717 452 370 396 312
0 0 0 0 0 0 0 0 0 0 0 0 0 0 0 0 0 0 0 0 0 0 0 0 0 0 0 2 9 20 2 495 1066 647 193 263 220 77 101 126 186 252 296
0 0 0 0 0 0 0 0 0 0 0 0 0 0 0 0 0 0 0 0 0 0 0 0 0 0 0 0 4 14 17 2 209 463 432 273 199 235 129 133 211 100 115

GFSSE_con_mucape_138.txt.gz
CAPE
1962 1650 1871 2142 2240 2455 2416 2081 2011 2155 2336 2455 2487 2421 2380 2509 2411 2466 2585 2704 2717 2629 2546 2461 2429 2362 2217 2099 2094 1841 2020 2292 2231 2186 2205 2219 2041 2026 1910 2094 1771 1675 2154
2253 1829 1607 1953 2172 2398 2503 2209 2044 2217 2470 2593 2610 2668 2605 2609 2473 2540 2643 2742 2915 2902 2600 2405 2490 2535 2151 2491 1973 1664 1807 2017 2105 2154 2281 2281 2054 1969 1802 1736 1486 1718 2179
2495 2225 1645 1811 2121 2317 2534 2510 2418 2514 2658 2697 2684 2737 2704 2679 2551 2586 2648 2729 3079 3103 2748 2276 2191 2085 1936 2070 1618 1539 1660 1836 1951 2148 2330 1708 1711 2069 1668 2008 1874 2121 2188
2778 2638 2134 1778 2028 2216 2350 2567 2689 2843 2877 2794 2785 2781 2854 2813 2642 2667 2634 2647 3105 3223 2973 2198 2070 1977 1856 1526 1437 1398 1518 1575 1705 1920 1696 1426 1306 2049 1760 2126 2267 2287 2180
2803 2914 2285 1712 1910 2105 2200 2477 2767 3024 2976 2858 2807 2921 2935 3002 2828 2815 2648 2602 3105 3438 3231 2554 2585 2303 1397 1104 1139 1164 1269 1319 1246 1360 1171 986 162 1431 1945 2131 2190 2233 1830
3522 3066 2378 1674 1773 1988 2100 2230 2617 2897 2895 2840 2774 2947 3037 3092 3019 2873 2588 2620 3119 3435 3158 3175 2978 2699 1397 819 809 911 977 1084 1023 704 996 1091 971 1961 1993 2043 1745 1700 1596
3105 3414 2328 1845 1854 1856 1972 2129 2185 2357 2604 2756 2829 2909 2998 3093 3068 2873 2518 2569 2866 3284 3296 3049 2873 2642 1941 1037 800 733 787 869 733 698 1231 1085 1638 1923 2008 2095 1780 1676 1606
2350 3745 2840 2065 2096 2066 2025 1941 1947 2017 2113 2467 2718 2887 3030 2958 2891 2811 2556 2466 2607 2848 3136 2905 2518 2555 2186 1434 1076 773 699 637 537 651 1006 1277 1657 2055 2185 2208 1741 1569 1653
2500 3242 3908 3362 3027 2026 2011 1972 1853 1822 1856 1944 2240 2607 2870 2867 2737 2678 2608 2479 2483 2576 2642 2879 2506 2500 2279 1813 1119 867 696 603 459 489 1010 955 1497 1875 1956 2188 1803 1612 1689
1173 3331 2829 4178 3722 3540 3173 1985 1877 1811 1765 1691 1753 1898 2303 2631 2683 2545 2436 2373 2396 2409 2303 2532 2538 2449 2272 1817 1015 894 776 598 463 577 697 1145 1464 2013 2095 2307 1950 1843 1682
62 727 1203 1885 3224 4190 4601 3632 3158 2179 1822 1776 1659 1603 1670 2065 2394 2691 2489 2425 2201 2199 2058 2193 2321 2308 2118 1686 1038 923 786 670 724 723 748 1067 1708 2287 2653 2386 1886 1797 1648
65 78 39 1540 2159 2352 2821 3137 3345 3230 2756 2379 2399 2636 2109 2167 2057 1913 2154 2290 2095 1973 1930 1981 2046 2044 1981 1550 1053 1029 842 836 752 776 973 1318 1920 2488 2316 2074 2047 1867 1601
0 0 0 202 1958 2118 2221 2450 2558 2372 2413 2824 2629 2779 2806 2702 2581 2330 2008 1629 1638 1771 1919 1727 1676 1682 1715 1466 1251 1189 915 860 780 680 827 1116 1823 2343 1969 2286 2289 2079 1653
0 0 0 0 15 1278 1847 2032 1749 2066 2418 2107 1777 1926 1946 2509 2605 2253 1808 1556 1393 1443 1685 1702 1374 1390 1443 1459 1476 1179 1078 946 791 774 657 772 1139 1881 1849 1859 2107 2063 1768
0 0 0 0 0 0 345 980 1341 1583 1743 1255 1229 1321 1767 2067 1269 1498 1795 1971 1529 1598 1372 1303 1148 1251 1299 1420 1515 1147 1415 1424 1002 1010 839 755 864 1401 1979 1822 1776 2050 2185
0 0 0 0 0 0 4 47 151 671 987 668 594 1161 1511 1133 1590 1538 1174 1061 1380 1378 1345 1168 996 859 717 411 543 1323 1537 1669 1771 1449 1564 899 779 812 1268 1771 2033 2258 2444
0 0 0 0 0 0 0 0 5 2 174 97 249 649 250 217 1323 1220 1000 593 1007 821 665 736 744 636 307 21 68 73 846 1162 1494 1598 1667 1514 1252 1075 820 978 1317 1729 2084
0 0 0 0 0 0 0 0 0 0 0 0 4 14 233 578 682 916 913 785 536 156 149 252 471 582 206 71 0 7 274 840 987 1135 1507 1581 1333 1287 1137 950 833 919 1300
0 0 0 0 0 0 0 0 0 0 0 0 0 7 178 168 121 95 92 140 125 30 0 8 20 174 630 387 125 197 282 717 910 921 1004 1260 1484 1336 1374 1296 1094 879 590
0 0 0 0 0 0 0 0 0 0 0 0 0 0 2 3 2 2 7 37 57 62 24 12 0 19 163 191 559 678 835 907 930 950 1078 1176 1307 1183 1104 1253 1209 1017 873
0 0 0 0 0 0 0 0 0 0 0 0 0 0 0 0 0 0 0 0 0 0 0 0 0 0 0 45 86 365 410 455 594 803 829 889 972 1012 896 1355 1227 1130 1063
0 0 0 0 0 0 0 0 0 0 0 0 0 0 0 0 0 0 0 0 0 0 0 0 0 0 0 0 95 114 139 161 422 568 537 549 557 867 1062 949 1031 1353 1161
0 0 0 0 0 0 0 0 0 0 0 0 0 0 0 0 0 0 0 0 0 0 0 0 0 0 0 0 0 54 107 154 93 175 452 577 500 291 194 179 438 732 1062
0 0 0 0 0 0 0 0 0 0 0 0 0 0 0 0 0 0 0 0 0 0 0 0 0 0 0 0 2 0 9 42 54 4 25 11 308 277 289 233 542 627 639
0 0 0 0 0 0 0 0 0 0 0 0 0 0 0 0 0 0 0 0 0 0 0 0 0 0 0 0 0 6 10 0 0 4 0 0 1 348 486 635 604 584 636
0 0 0 0 0 0 0 0 0 0 0 0 0 0 0 0 0 0 0 0 0 0 0 0 0 0 0 0 0 0 0 7 0 0 0 0 0 4 64 260 625 746 727

GFSSE_con_mucape_141.txt.gz
CAPE
1439 1694 1922 2200 2343 2186 1923 1848 1844 1967 2080 2228 2240 2344 2350 2233 2242 2392 2456 2371 2438 2625 2319 2105 2391 2225 2012 2029 1805 1716 1982 1978 1989 2200 2274 2347 1861 1922 2126 2261 2007 1748 2205
1455 1665 1792 2008 2308 2400 2093 1859 1875 2051 2273 2371 2387 2443 2447 2318 2210 2417 2479 2487 2494 2652 2303 2285 2429 2419 2251 2161 1507 1349 1671 1761 1818 1980 2310 2189 2006 1718 1661 1675 1939 1977 2180
1601 1555 1756 1895 2158 2357 2317 2096 2089 2275 2440 2461 2486 2502 2525 2460 2302 2400 2414 2538 2768 2728 2413 2268 2208 2105 2178 1792 1268 1231 1383 1551 1744 1960 2150 1707 1765 1853 1505 1990 2099 2188 2153
2046 1436 1623 1810 2030 2261 2349 2295 2280 2489 2570 2516 2547 2598 2595 2581 2434 2419 2408 2474 2890 2951 2604 2204 2169 2087 1877 1425 1146 1102 1185 1266 1551 1721 1619 1408 1263 2035 1808 2063 2284 2251 2196
2493 1862 1647 1696 1867 2126 2318 2408 2451 2540 2481 2471 2528 2686 2747 2737 2612 2565 2424 2386 2881 3218 2899 2216 2168 2127 1400 980 977 953 1022 1018 1003 1153 994 1121 1132 2081 1922 2323 2123 2243 1976
2638 2403 2147 1559 1726 1970 2167 2459 2621 2646 2477 2436 2476 2695 2831 2912 2806 2650 2383 2451 2909 3308 3278 3006 2937 2300 1077 698 764 783 748 784 827 498 523 761 674 1957 1963 2083 2027 1806 1615
2372 1961 1656 1505 1592 1821 2015 2130 2344 2541 2590 2603 2536 2605 2738 2846 2814 2560 2308 2405 2671 3037 3107 2850 2634 2546 2057 1098 694 649 557 589 624 495 686 742 745 1760 1924 2066 1782 1723 1674
2804 2494 2440 1911 1847 1732 1687 1720 1805 1956 2259 2576 2655 2661 2769 2775 2696 2600 2309 2225 2359 2583 2792 2687 2415 2361 2338 1860 1110 685 503 417 590 528 667 289 638 1702 2355 1998 1740 1473 1629
2777 2993 3087 2985 2879 2055 1803 1737 1667 1710 1812 2029 2401 2607 2780 2720 2602 2570 2474 2246 2217 2284 2437 2634 2648 2291 2305 2155 1735 1017 691 473 454 435 846 905 1118 1722 2273 1821 1850 1568 1587
1476 1856 3157 3124 3224 3419 3275 2510 1866 1767 1654 1579 1659 1900 2370 2509 2582 2512 2450 2384 2239 2191 2228 2337 2637 2502 2226 2239 2006 1423 801 625 587 419 547 906 1397 2016 2301 1976 1944 1702 1627
642 1380 1730 1987 2394 2442 2814 3399 2866 2399 1780 1646 1617 1613 1570 1735 2128 2200 2230 2250 2224 2199 2171 2186 2194 2293 2253 2193 2036 1524 792 697 640 441 326 699 1355 2534 2336 1990 1739 1696 1641
0 186 887 1650 1951 2139 2535 2598 3042 2010 1756 1599 1930 2101 1937 2148 2173 1783 2034 1899 1908 1955 1983 2033 1905 1917 2027 2005 1881 1503 821 711 654 583 639 733 1541 2268 2310 2084 1735 1641 1647
0 0 0 83 1501 1930 2058 2061 2039 1631 974 1251 1803 1850 2427 2132 2052 2075 1976 1581 1440 1486 1362 1661 1540 1442 1578 1639 1634 1457 931 775 691 574 642 904 1564 2125 2287 1917 1985 1901 1674
0 0 0 0 0 295 1641 1880 1761 1432 1148 1134 1247 1232 1373 1365 1607 1803 1576 1307 1174 1083 1361 1236 1360 1246 1205 1251 1170 971 998 1146 990 584 607 1040 1545 2240 2318 2132 2321 2191 1820
0 0 0 0 0 0 0 235 714 1388 1154 928 917 955 905 777 757 777 643 656 956 863 732 594 613 607 748 643 213 202 85 182 521 716 630 977 1422 1775 2085 2277 2416 2379 2109
0 0 0 0 0 0 0 0 0 0 188 674 700 277 75 195 346 106 103 719 570 485 241 463 564 420 372 362 310 62 3 50 603 763 680 711 1192 1352 1787 1953 2261 2443 2301
0 0 0 0 0 0 0 0 0 0 0 0 2 3 1 0 2 2 120 500 228 32 136 523 313 290 293 150 98 7 0 23 486 537 123 742 658 991 1183 1637 2013 2223 2267
0 0 0 0 0 0 0 0 0 0 0 0 0 0 0 0 1 1 35 76 46 18 9 2 0 8 57 192 84 0 11 40 44 202 382 497 691 765 799 987 1354 1607 1822
0 0 0 0 0 0 0 0 0 0 0 0 0 0 0 0 0 9 0 0 0 8 25 26 28 11 1 46 119 34 0 0 21 381 315 520 776 844 712 720 744 873 1145
0 0 0 0 0 0 0 0 0 0 0 0 0 0 0 0 0 0 0 0 0 0 3 16 28 32 20 0 26 117 225 492 557 327 361 497 816 978 909 823 799 678 662
0 0 0 0 0 0 0 0 0 0 0 0 0 0 0 0 0 0 0 0 0 0 0 0 0 0 0 0 4 10 42 185 299 448 537 593 595 687 841 935 899 694 359
0 0 0 0 0 0 0 0 0 0 0 0 0 0 0 0 0 0 0 0 0 0 0 0 0 0 0 0 0 2 36 52 102 218 442 615 691 711 725 749 619 405 305
0 0 0 0 0 0 0 0 0 0 0 0 0 0 0 0 0 0 0 0 0 0 0 0 0 0 0 0 0 0 7 39 29 6 157 258 402 533 491 385 385 449 373
0 0 0 0 0 0 0 0 0 0 0 0 0 0 0 0 0 0 0 0 0 0 0 0 0 0 0 0 0 0 0 1 1 0 4 3 21 12 73 73 60 77 44
0 0 0 0 0 0 0 0 0 0 0 0 0 0 0 0 0 0 0 0 0 0 0 0 0 0 0 0 0 0 1 0 0 0 0 0 0 0 0 31 146 233 344
0 0 0 0 0 0 0 0 0 0 0 0 0 0 0 0 0 0 0 0 0 0 0 0 0 0 0 0 0 0 0 0 0 0 0 0 0 0 0 0 0 22 180

GFSSE_con_mucape_144.txt.gz
CAPE
1414 1800 2052 2130 1960 1813 1748 1759 1794 1867 2072 2216 2266 2290 2253 2433 2441 2380 2385 2438 2597 2820 2418 2159 2317 2091 2009 1974 1737 2000 1879 1894 2101 2379 2358 2220 1915 2059 2033 2173 1969 1792 2155
1483 1703 1903 2107 2082 1983 1908 1809 1873 2018 2248 2335 2369 2343 2248 2302 2437 2442 2331 2314 2589 2775 2257 2296 2418 2431 2390 2107 1488 1626 1722 1632 1779 2107 2354 2096 1927 2068 2141 2063 1897 1966 2264
1523 1667 1829 2023 2182 2071 2046 2013 2111 2327 2423 2458 2443 2396 2351 2288 2442 2407 2352 2328 2462 2812 2455 2446 2502 2403 2516 1682 1119 1210 1419 1521 1648 2024 2086 1773 1705 1970 1778 1960 2082 2270 2244
1414 1542 1710 1912 2135 2177 1984 2005 2148 2505 2539 2478 2504 2503 2507 2386 2331 2437 2328 2360 2629 2812 2417 2373 2340 2262 2009 1360 963 1004 1085 1231 1474 1620 1270 1527 1463 2001 1889 2128 2121 2070 2177
1359 1398 1704 1769 2018 2203 2156 2046 2109 2319 2334 2356 2389 2589 2648 2598 2479 2471 2333 2340 2779 2990 2610 2312 2350 2421 1394 967 839 797 958 935 976 1187 1178 1061 1087 1431 1835 2120 2244 2253 2136
2147 2028 1577 1703 1888 2152 2277 2299 2319 2240 2129 2169 2298 2544 2743 2799 2693 2495 2275 2382 2840 3142 3060 2858 2759 2092 1145 734 642 655 661 742 786 550 630 735 915 1587 1903 2332 2068 2013 1889
2039 1826 1484 1585 1710 1872 2066 2340 2498 2533 2454 2402 2366 2470 2614 2818 2812 2508 2212 2274 2603 3010 3340 3217 2809 2574 2033 1265 645 577 471 461 506 388 566 697 705 1656 1934 2001 2123 1846 1895
2224 2219 1755 1748 1585 1564 1719 1822 1912 2116 2360 2531 2566 2515 2606 2701 2672 2603 2315 2178 2269 2460 2704 2731 2594 2364 2410 2095 1496 821 434 335 450 373 435 382 786 1037 2337 2052 1866 1647 1726
2633 2710 2598 2715 2535 1947 1838 1542 1523 1651 1800 2112 2424 2542 2596 2651 2641 2604 2561 2310 2165 2185 2300 2546 2493 2453 2294 2312 2094 1645 888 554 350 279 336 785 728 1334 2214 1574 1740 1656 1691
2383 2968 2643 2596 2891 3057 2885 2619 1892 1612 1579 1609 1692 1891 2242 2486 2453 2364 2330 2283 2304 2124 2063 2186 2295 2417 2371 2140 2207 1983 1503 839 478 344 372 717 1018 1580 2297 1963 1793 1700 1747
1172 1367 1686 1812 1896 2008 2200 2987 2653 2233 1964 1694 1602 1562 1527 1553 1758 1934 1903 1888 1808 1901 1875 1870 1909 2004 2129 2180 2090 2076 1764 1166 553 321 402 341 772 2106 2124 1923 1813 1767 1745
496 1089 1300 1292 1625 1846 2092 2188 2296 2176 1782 1723 1550 2102 2047 1981 2125 2144 1916 1792 1707 1656 1542 1516 1664 1628 1360 1443 1827 1862 1872 1404 690 355 381 385 707 1922 2332 1796 1812 1806 1703
0 0 28 47 545 1156 1658 2028 1799 1617 1620 1197 518 1844 1958 1859 1789 2299 2175 1790 1581 1199 1096 1058 968 971 1004 1002 1142 618 625 808 811 609 427 456 678 1982 2222 1840 2001 1957 1737
0 0 0 0 0 0 1 1331 1720 1219 911 1273 1394 1107 1167 1344 1348 1354 1270 1264 1095 1079 770 747 699 544 509 932 683 396 215 143 115 413 615 586 410 1512 1900 2157 2229 1977 1820
0 0 0 0 0 0 0 0 68 882 956 1100 1026 1013 1108 1084 923 773 591 9 473 456 550 592 513 365 414 310 406 308 79 6 51 163 534 633 486 885 1728 2091 2323 2005 1755
0 0 0 0 0 0 0 0 0 0 0 182 584 768 711 612 417 23 0 0 0 0 2 50 64 126 167 270 228 313 58 0 13 7 541 765 643 479 1150 1552 1867 2237 2343
0 0 0 0 0 0 0 0 0 0 0 0 0 0 3 1 0 0 0 1 2 0 1 1 1 2 4 105 164 150 19 0 0 18 276 689 441 235 769 923 1171 1437 1936
0 0 0 0 0 0 0 0 0 0 0 0 0 0 0 0 0 0 0 0 0 0 0 0 0 24 1 0 0 112 0 3 0 3 315 394 227 190 327 653 525 733 891
0 0 0 0 0 0 0 0 0 0 0 0 0 0 0 0 0 0 0 0 0 0 0 0 0 0 13 14 0 23 90 0 0 4 42 135 275 278 296 395 519 543 654
0 0 0 0 0 0 0 0 0 0 0 0 0 0 0 0 0 0 0 0 0 0 0 0 0 0 0 1 7 3 58 69 150 208 13 123 212 286 474 514 430 393 487
0 0 0 0 0 0 0 0 0 0 0 0 0 0 0 0 0 0 0 0 0 0 0 0 0 0 0 0 0 0 0 0 51 246 396 535 495 531 645 678 516 428 236
0 0 0 0 0 0 0 0 0 0 0 0 0 0 0 0 0 0 0 0 0 0 0 0 0 0 0 0 0 0 1 0 17 24 68 169 365 441 470 530 669 710 705
0 0 0 0 0 0 0 0 0 0 0 0 0 0 0 0 0 0 0 0 0 0 0 0 0 0 0 0 0 0 0 0 0 0 8 17 100 210 250 375 335 392 453
0 0 0 0 0 0 0 0 0 0 0 0 0 0 0 0 0 0 0 0 0 0 0 0 0 0 0 0 0 0 0 0 0 0 0 0 0 24 66 60 68 56 90
0 0 0 0 0 0 0 0 0 0 0 0 0 0 0 0 0 0 0 0 0 0 0 0 0 0 0 0 0 0 0 0 0 0 0 0 0 0 0 0 0 0 6
0 0 0 0 0 0 0 0 0 0 0 0 0 0 0 0 0 0 0 0 0 0 0 0 0 0 0 0 0 0 0 0 0 0 0 0 0 0 0 0 0 0 0